When you browse on this site, cookies collect data to enhance your experience and personalize the content and advertising you see.
Visit our Privacy Policy to learn more. By continuing to use the site, you agree to this use of cookies and data.
  • In United Kingdom
  • List of Countries
  • For 7 days
  • Water Temperature
  • Satellite Maps
  • Weather Map
  • Weather Widgets
  • user-avatar
    Login

    Hourly Weather Harare

    Today, 22 May, Wednesday

    Time Temperature Precipitation Wind Pressure Humidity
    00:00 +15°C° 0 mm 2 mps 640 mmHg 38%
    01:00 +14°C° 0 mm 2 mps 640 mmHg 37%
    02:00 +13°C° 0 mm 1 mps 640 mmHg 38%
    03:00 +13°C° 0 mm 1 mps 640 mmHg 40%
    04:00 +13°C° 0 mm 1 mps 639 mmHg 42%
    05:00 +12°C° 0 mm 1 mps 639 mmHg 44%
    06:00 +14°C° 0 mm 1 mps 640 mmHg 43%
    07:00 +15°C° 0 mm 1 mps 641 mmHg 42%
    08:00 +18°C° 0 mm 1 mps 642 mmHg 41%
    09:00 +20°C° 0 mm 1 mps 642 mmHg 38%
    10:00 +22°C° 0 mm 1 mps 643 mmHg 34%
    11:00 +24°C° 0 mm 2 mps 644 mmHg 30%
    12:00 +25°C° 0 mm 2 mps 643 mmHg 28%
    13:00 +26°C° 0 mm 2 mps 643 mmHg 25%
    14:00 +26°C° 0 mm 2 mps 643 mmHg 23%
    15:00 +25°C° 0 mm 2 mps 642 mmHg 26%
    16:00 +24°C° 0 mm 2 mps 641 mmHg 29%
    17:00 +23°C° 0 mm 2 mps 641 mmHg 33%
    18:00 +20°C° 0 mm 2 mps 641 mmHg 37%
    19:00 +18°C° 0 mm 2 mps 641 mmHg 41%
    20:00 +16°C° 0 mm 2 mps 640 mmHg 45%
    21:00 +15°C° 0 mm 2 mps 641 mmHg 47%
    22:00 +14°C° 0 mm 1 mps 641 mmHg 48%
    23:00 +14°C° 0 mm 1 mps 641 mmHg 50%

    Tomorrow, 23 May, Thursday

    Time Temperature Precipitation Wind Pressure Humidity
    00:00 +13°C° 0 mm 1 mps 640 mmHg 51%
    01:00 +13°C° 0 mm 1 mps 640 mmHg 53%
    02:00 +12°C° 0 mm 1 mps 640 mmHg 55%
    03:00 +12°C° 0 mm 1 mps 640 mmHg 56%
    04:00 +11°C° 0 mm 1 mps 640 mmHg 57%
    05:00 +11°C° 0 mm 1 mps 640 mmHg 58%
    06:00 +12°C° 0 mm 1 mps 640 mmHg 53%
    07:00 +14°C° 0 mm 1 mps 641 mmHg 49%
    08:00 +15°C° 0 mm 1 mps 642 mmHg 44%
    09:00 +18°C° 0 mm 2 mps 643 mmHg 37%
    10:00 +20°C° 0 mm 2 mps 643 mmHg 31%
    11:00 +24°C° 0 mm 2 mps 644 mmHg 24%
    12:00 +24°C° 0 mm 2 mps 643 mmHg 22%
    13:00 +25°C° 0 mm 2 mps 643 mmHg 20%
    14:00 +26°C° 0 mm 2 mps 642 mmHg 18%
    15:00 +25°C° 0 mm 2 mps 642 mmHg 21%
    16:00 +23°C° 0 mm 2 mps 641 mmHg 24%
    17:00 +21°C° 0 mm 2 mps 640 mmHg 28%
    18:00 +19°C° 0 mm 2 mps 640 mmHg 32%
    19:00 +17°C° 0 mm 2 mps 640 mmHg 36%
    20:00 +15°C° 0 mm 1 mps 640 mmHg 40%
    21:00 +14°C° 0 mm 1 mps 640 mmHg 44%
    22:00 +14°C° 0 mm 1 mps 640 mmHg 48%
    23:00 +13°C° 0 mm 1 mps 641 mmHg 53%

    Day after tomorrow, 24 May, Friday

    Time Temperature Precipitation Wind Pressure Humidity
    00:00 +13°C° 0 mm 1 mps 640 mmHg 56%
    01:00 +12°C° 0 mm 1 mps 640 mmHg 60%
    02:00 +12°C° 0 mm 1 mps 640 mmHg 64%
    03:00 +12°C° 0 mm 1 mps 640 mmHg 66%
    04:00 +11°C° 0 mm 1 mps 640 mmHg 69%
    05:00 +11°C° 0 mm 1 mps 640 mmHg 71%
    06:00 +12°C° 0 mm 1 mps 641 mmHg 66%
    07:00 +14°C° 0 mm 1 mps 642 mmHg 60%
    08:00 +15°C° 0 mm 1 mps 642 mmHg 55%
    09:00 +18°C° 0 mm 2 mps 643 mmHg 48%
    10:00 +20°C° 0 mm 2 mps 644 mmHg 42%
    11:00 +22°C° 0 mm 3 mps 644 mmHg 35%
    12:00 +24°C° 0 mm 3 mps 644 mmHg 35%
    13:00 +24°C° 0 mm 3 mps 643 mmHg 34%
    14:00 +25°C° 0 mm 3 mps 642 mmHg 33%
    15:00 +24°C° 0 mm 3 mps 642 mmHg 37%
    16:00 +22°C° 0 mm 3 mps 642 mmHg 40%
    17:00 +21°C° 0 mm 2 mps 641 mmHg 44%
    18:00 +19°C° 0 mm 2 mps 641 mmHg 51%
    19:00 +17°C° 0 mm 2 mps 641 mmHg 58%
    20:00 +16°C° 0 mm 2 mps 642 mmHg 65%
    21:00 +15°C° 0 mm 2 mps 642 mmHg 70%
    22:00 +15°C° 0 mm 2 mps 642 mmHg 75%
    23:00 +14°C° 0 mm 2 mps 642 mmHg 79%

    25 May, Saturday

    Time Temperature Precipitation Wind Pressure Humidity
    00:00 +14°C° 0 mm 2 mps 641 mmHg 82%
    01:00 +13°C° 0 mm 2 mps 641 mmHg 85%
    02:00 +13°C° 0 mm 2 mps 641 mmHg 87%
    03:00 +12°C° 0 mm 2 mps 640 mmHg 88%
    04:00 +12°C° 0 mm 2 mps 640 mmHg 89%
    05:00 +12°C° 0 mm 2 mps 640 mmHg 90%
    06:00 +13°C° 0 mm 2 mps 641 mmHg 83%
    07:00 +14°C° 0 mm 2 mps 642 mmHg 76%
    08:00 +16°C° 0 mm 2 mps 643 mmHg 69%
    09:00 +18°C° 0.1 mm 2 mps 643 mmHg 61%
    10:00 +20°C° 0.1 mm 3 mps 644 mmHg 52%
    11:00 +22°C° 0.1 mm 3 mps 644 mmHg 44%
    12:00 +21°C° 0.1 mm 2 mps 643 mmHg 44%
    13:00 +21°C° 0.1 mm 2 mps 642 mmHg 45%
    14:00 +22°C° 0.1 mm 1 mps 641 mmHg 46%
    15:00 +21°C° 0.2 mm 1 mps 641 mmHg 49%
    16:00 +20°C° 0.2 mm 1 mps 641 mmHg 53%
    17:00 +19°C° 0.2 mm 1 mps 640 mmHg 56%
    18:00 +18°C° 0.3 mm 1 mps 641 mmHg 58%
    19:00 +17°C° 0.3 mm 2 mps 641 mmHg 60%
    20:00 +16°C° 0.3 mm 2 mps 642 mmHg 62%
    21:00 +15°C° 0.2 mm 2 mps 642 mmHg 64%
    22:00 +14°C° 0.2 mm 3 mps 642 mmHg 67%
    23:00 +13°C° 0.2 mm 3 mps 641 mmHg 69%

    26 May, Sunday

    Time Temperature Precipitation Wind Pressure Humidity
    00:00 +14°C° 0.1 mm 2 mps 641 mmHg 75%
    01:00 +13°C° 0.1 mm 2 mps 641 mmHg 80%
    02:00 +13°C° 0.1 mm 2 mps 640 mmHg 86%
    03:00 +12°C° 0 mm 2 mps 640 mmHg 87%
    04:00 +10°C° 0 mm 2 mps 640 mmHg 89%
    05:00 +11°C° 0 mm 1 mps 640 mmHg 91%
    06:00 +12°C° 0 mm 2 mps 641 mmHg 84%
    07:00 +13°C° 0 mm 2 mps 641 mmHg 77%
    08:00 +14°C° 0 mm 2 mps 642 mmHg 70%
    09:00 +17°C° 0 mm 2 mps 642 mmHg 58%
    10:00 +19°C° 0 mm 2 mps 643 mmHg 47%
    11:00 +23°C° 0 mm 1 mps 643 mmHg 35%
    12:00 +24°C° 0 mm 1 mps 643 mmHg 33%
    13:00 +25°C° 0 mm 1 mps 643 mmHg 30%
    14:00 +24°C° 0 mm 0 mps 642 mmHg 28%
    15:00 +24°C° 0 mm 1 mps 642 mmHg 30%
    16:00 +23°C° 0 mm 1 mps 641 mmHg 33%
    17:00 +21°C° 0 mm 1 mps 641 mmHg 36%
    18:00 +20°C° 0 mm 1 mps 641 mmHg 39%
    19:00 +18°C° 0 mm 2 mps 641 mmHg 43%
    20:00 +17°C° 0 mm 2 mps 641 mmHg 46%
    21:00 +16°C° 0 mm 2 mps 641 mmHg 50%
    22:00 +15°C° 0 mm 2 mps 640 mmHg 54%
    23:00 +13°C° 0 mm 2 mps 640 mmHg 59%

    27 May, Monday

    Time Temperature Precipitation Wind Pressure Humidity
    00:00 +13°C° 0 mm 2 mps 640 mmHg 60%
    01:00 +12°C° 0 mm 2 mps 639 mmHg 62%
    02:00 +12°C° 0 mm 1 mps 639 mmHg 63%
    03:00 +11°C° 0 mm 1 mps 639 mmHg 65%
    04:00 +11°C° 0 mm 1 mps 639 mmHg 67%
    05:00 +11°C° 0 mm 1 mps 640 mmHg 69%
    06:00 +12°C° 0 mm 1 mps 640 mmHg 65%
    07:00 +14°C° 0 mm 1 mps 641 mmHg 61%
    08:00 +15°C° 0 mm 1 mps 642 mmHg 57%
    09:00 +19°C° 0 mm 1 mps 643 mmHg 50%
    10:00 +20°C° 0 mm 0 mps 643 mmHg 43%
    11:00 +23°C° 0 mm 0 mps 644 mmHg 37%
    12:00 +23°C° 0 mm 0 mps 643 mmHg 34%
    13:00 +24°C° 0 mm 0 mps 642 mmHg 31%
    14:00 +24°C° 0 mm 0 mps 642 mmHg 28%
    15:00 +23°C° 0 mm 0 mps 641 mmHg 30%
    16:00 +22°C° 0 mm 0 mps 641 mmHg 33%
    17:00 +22°C° 0 mm 1 mps 640 mmHg 35%
    18:00 +21°C° 0 mm 1 mps 640 mmHg 37%
    19:00 +20°C° 0 mm 1 mps 641 mmHg 38%
    20:00 +18°C° 0 mm 2 mps 641 mmHg 40%
    21:00 +17°C° 0 mm 2 mps 641 mmHg 41%
    22:00 +16°C° 0 mm 2 mps 640 mmHg 42%
    23:00 +15°C° 0 mm 2 mps 640 mmHg 43%
    Show more